CAPE
0 0 0 0 0 0 0 0 0 0 0 0 0 0 0 0 0 0 0 0 0 0 0 2 5 6 6 3 2 0 0 0 0 0 0 0 0 0 0 0 0 0 0 0 0 0 0 0 0
0 0 0 0 0 0 0 0 0 0 0 0 0 0 0 0 0 0 0 0 0 0 0 0 0 2 2 1 0 0 0 0 0 0 0 0 0 0 0 0 0 0 0 0 0 0 0 0 0
0 0 0 0 0 0 0 0 0 0 0 0 0 0 0 0 0 0 0 0 0 0 0 0 0 0 0 0 0 0 0 0 0 0 0 0 0 0 0 0 0 0 0 0 0 0 0 0 0
0 0 0 0 0 0 0 0 0 0 0 0 0 0 0 0 0 0 0 0 0 0 0 0 0 0 0 0 0 0 0 0 0 0 0 0 0 0 0 0 0 0 0 0 0 0 0 0 0
0 0 0 0 0 0 0 0 0 0 0 0 0 0 0 0 0 0 0 0 0 0 0 0 0 0 0 0 0 0 0 0 0 0 0 0 0 0 0 0 0 0 0 0 0 0 0 0 0
0 0 0 0 0 0 0 0 0 0 0 0 0 0 0 0 0 0 0 0 0 0 0 0 0 0 0 0 0 0 0 0 0 0 0 0 0 0 0 0 0 0 0 0 0 0 0 0 0
0 0 0 0 0 0 0 0 0 0 0 0 0 0 0 0 0 0 0 0 0 0 0 0 0 0 0 0 0 0 0 0 0 0 0 0 0 0 0 0 0 0 0 0 0 0 0 0 0
0 0 0 0 0 0 0 0 0 0 0 0 0 0 0 0 0 0 0 0 0 0 0 0 0 0 0 0 0 0 0 0 0 0 0 0 0 0 0 0 0 0 0 0 0 0 0 0 0
0 0 0 0 0 0 0 0 0 0 0 0 0 0 0 0 0 0 0 0 0 0 0 0 0 0 0 0 0 0 0 0 0 0 0 0 0 0 0 0 0 0 0 0 0 0 0 0 0
0 0 0 0 0 0 0 0 0 0 0 0 0 0 0 0 0 0 0 0 0 0 0 0 0 0 0 0 0 0 0 0 0 0 0 0 0 0 0 0 0 0 0 0 0 0 0 0 0
0 0 0 0 0 0 0 0 0 0 0 0 0 0 0 0 0 0 0 0 0 0 0 0 0 0 0 0 0 0 0 0 0 0 0 0 0 0 0 0 0 0 0 0 0 0 0 0 0
0 0 0 0 0 0 0 0 0 0 0 0 0 0 0 0 0 0 0 0 0 0 0 0 0 0 0 0 0 0 0 0 0 0 0 0 0 0 0 0 0 0 0 0 0 0 0 0 0
0 0 0 0 0 0 0 0 0 0 0 0 0 0 0 0 0 0 0 0 0 0 0 0 0 0 0 0 0 0 0 0 0 0 0 0 0 0 0 0 0 0 0 0 0 0 0 0 0
0 0 0 0 0 0 0 0 0 0 0 0 0 0 0 0 0 0 0 0 0 0 0 0 0 0 0 0 0 0 0 0 0 0 0 0 0 0 0 0 0 0 0 0 0 0 0 0 0
0 0 0 0 0 0 0 0 0 0 0 0 0 0 0 0 0 0 0 0 0 0 0 0 0 0 0 0 0 0 0 0 0 0 0 0 0 0 0 0 0 0 0 0 0 0 0 0 0
0 0 0 0 0 0 0 0 0 0 0 0 0 0 0 0 0 0 0 0 0 0 0 0 0 0 0 0 0 0 0 0 0 0 0 0 0 0 0 0 0 0 0 0 0 0 0 0 0
0 0 0 0 0 0 0 0 0 0 0 0 0 0 0 0 0 0 0 0 0 0 0 0 0 0 0 0 0 0 0 0 0 0 0 0 0 0 0 0 0 0 0 0 0 0 0 0 0
0 0 0 0 0 0 0 0 0 0 0 0 0 0 0 0 0 0 0 0 0 0 0 0 0 0 0 0 0 0 0 0 0 0 0 0 0 0 0 0 0 0 0 0 0 0 0 0 0
0 0 0 0 0 0 0 0 0 0 0 0 0 0 0 0 0 0 0 0 0 0 0 0 0 0 0 0 0 0 0 0 0 0 0 0 0 0 0 0 0 0 0 0 0 0 0 0 0
0 0 0 0 0 0 0 0 0 0 0 0 0 0 0 0 0 0 0 0 0 0 0 0 0 0 0 0 0 0 0 0 0 0 0 0 0 0 0 0 0 0 0 0 0 0 0 0 0
0 0 0 0 0 0 0 0 0 0 0 0 0 0 0 0 0 0 0 0 0 0 0 0 0 0 0 0 0 0 0 0 0 0 0 0 0 0 0 0 0 0 0 0 0 0 0 0 0
0 0 0 0 0 0 0 0 0 0 0 0 0 0 0 0 0 0 0 0 0 0 0 0 0 0 0 0 0 0 0 0 0 0 0 0 0 0 0 0 0 0 0 0 0 0 0 0 0
0 0 0 0 0 0 0 0 0 0 0 0 0 0 0 0 0 0 0 0 0 0 0 0 0 0 0 0 0 0 0 0 0 0 0 0 0 0 0 0 0 0 0 0 0 0 1 2 0
0 0 0 0 0 0 0 0 0 0 0 0 0 0 0 0 0 0 0 0 0 0 0 0 0 0 0 0 0 0 0 0 0 0 0 0 0 0 0 0 0 0 0 0 0 0 0 0 1
0 0 0 0 0 0 0 0 0 0 0 0 0 0 0 0 0 0 0 0 0 0 0 0 0 0 0 0 0 0 0 0 0 0 0 0 0 0 0 0 0 0 0 0 0 0 0 0 0
0 0 0 0 0 0 0 0 0 0 0 0 0 0 0 0 0 0 0 0 0 0 0 0 0 0 0 0 0 0 0 0 0 0 0 0 0 0 0 0 0 0 0 0 0 0 0 0 0
0 0 0 0 0 0 0 0 0 0 0 0 0 0 0 0 0 0 0 0 0 0 0 0 0 0 0 0 0 0 0 0 0 0 0 0 0 0 0 0 0 0 0 0 0 0 0 0 0
0 0 0 0 0 0 0 0 0 0 0 0 0 0 0 0 0 0 0 0 0 0 0 0 0 0 0 0 0 0 0 0 0 0 0 0 0 0 0 0 0 0 0 0 0 0 0 0 0
0 0 0 0 0 0 0 0 0 0 0 0 0 0 0 0 0 0 0 0 0 0 0 0 0 0 0 0 0 0 0 0 0 0 0 0 0 0 0 0 0 0 0 0 0 0 0 0 0
0 0 0 0 0 0 0 0 0 0 0 0 0 0 0 0 0 0 0 0 0 0 0 0 0 0 0 0 0 0 0 0 0 0 0 0 0 0 0 0 0 0 0 0 0 0 0 0 0
CIN
0 0 0 0 0 0 0 0 0 0 0 0 0 0 0 0 0 0 0 0 0 0 0 -1 -1 0 0 0 0 0 0 0 0 0 0 0 0 0 0 0 0 0 0 0 0 0 0 0 0
0 0 0 0 0 0 0 0 0 0 0 0 0 0 0 0 0 0 0 0 0 0 0 0 0 0 0 0 0 0 0 0 0 0 0 0 0 0 0 0 0 0 0 0 0 0 0 0 0
0 0 0 0 0 0 0 0 0 0 0 0 0 0 0 0 0 0 0 0 0 0 0 0 0 -1 0 0 0 0 0 0 0 0 0 0 0 0 0 0 0 0 0 0 0 0 0 0 0
0 0 0 0 0 0 0 0 0 0 0 0 0 0 0 0 0 0 0 0 0 0 0 0 0 0 0 0 0 0 0 0 0 0 0 0 0 0 0 0 0 0 0 0 0 0 0 0 0
0 0 0 0 0 0 0 0 0 0 0 0 0 0 0 0 0 0 0 0 0 0 0 0 0 0 0 0 0 0 0 0 0 0 0 0 0 0 0 0 0 0 0 0 0 0 0 0 0
0 0 0 0 0 0 0 0 0 0 0 0 0 0 0 0 0 0 0 0 0 0 0 0 0 0 0 0 0 0 0 0 0 0 0 0 0 0 0 0 0 0 0 0 0 0 0 0 0
0 0 0 0 0 0 0 0 0 0 0 0 0 0 0 0 0 0 0 0 0 0 0 0 0 0 0 0 0 0 0 0 0 0 0 0 0 0 0 0 0 0 0 0 0 0 0 0 0
0 0 0 0 0 0 0 0 0 0 0 0 0 0 0 0 0 0 0 0 0 0 0 0 0 0 0 0 0 0 0 0 0 0 0 0 0 0 0 0 0 0 0 0 0 0 0 0 0
0 0 0 0 0 0 0 0 0 0 0 0 0 0 0 0 0 0 0 0 0 0 0 0 0 0 0 0 0 0 0 0 0 0 0 0 0 0 0 0 0 0 0 0 0 0 0 0 0
0 0 0 0 0 0 0 0 0 0 0 0 0 0 0 0 0 0 0 0 0 0 0 0 0 0 0 0 0 0 0 0 0 0 0 0 0 0 0 0 0 0 0 0 0 0 0 0 0
0 0 0 0 0 0 0 0 0 0 0 0 0 0 0 0 0 0 0 0 0 0 0 0 0 0 0 0 0 0 0 0 0 0 0 0 0 0 0 0 0 0 0 0 0 0 0 0 0
0 0 0 0 0 0 0 0 0 0 0 0 0 0 0 0 0 0 0 0 0 0 0 0 0 0 0 0 0 0 0 0 0 0 0 0 0 0 0 0 0 0 0 0 0 0 0 0 0
0 0 0 0 0 0 0 0 0 0 0 0 0 0 0 0 0 0 0 0 0 0 0 0 0 0 0 0 0 0 0 0 0 0 0 0 0 0 0 0 0 0 0 0 0 0 0 0 0
0 0 0 0 0 0 0 0 0 0 0 0 0 0 0 0 0 0 0 0 0 0 0 0 0 0 0 0 0 0 0 0 0 0 0 0 0 0 0 0 0 0 0 0 0 0 0 0 0
0 0 0 0 0 0 0 0 0 0 0 0 0 0 0 0 0 0 0 0 0 0 0 0 0 0 0 0 0 0 0 0 0 0 0 0 0 0 0 0 0 0 0 0 0 0 0 0 0
0 0 0 0 0 0 0 0 0 0 0 0 0 0 0 0 0 0 0 0 0 0 0 0 0 0 0 0 0 0 0 0 0 0 0 0 0 0 0 0 0 0 0 0 0 0 0 0 0
0 0 0 0 0 0 0 0 0 0 0 0 0 0 0 0 0 0 0 0 0 0 0 0 0 0 0 0 0 0 0 0 0 0 0 0 0 0 0 0 0 0 0 0 0 0 0 0 0
0 0 0 0 0 0 0 0 0 0 0 0 0 0 0 0 0 0 0 0 0 0 0 0 0 0 0 0 0 0 0 0 0 0 0 0 0 0 0 0 0 0 0 0 0 0 0 0 0
0 0 0 0 0 0 0 0 0 0 0 0 0 0 0 0 0 0 0 0 0 0 0 0 0 0 0 0 0 0 0 0 0 0 0 0 0 0 0 0 0 0 0 0 0 0 0 0 0
0 0 0 0 0 0 0 0 0 0 0 0 0 0 0 0 0 0 0 0 0 0 0 0 0 0 0 0 0 0 0 0 0 0 0 0 0 0 0 0 0 0 0 0 0 0 0 0 0
0 0 0 0 0 0 0 0 0 0 0 0 0 0 0 0 0 0 0 0 0 0 0 0 0 0 0 0 0 0 0 0 0 0 0 0 0 0 0 0 0 0 0 0 0 0 -1 0 0
0 0 0 0 0 0 0 0 0 0 0 0 0 0 0 0 0 0 0 0 0 0 0 0 0 0 0 0 0 0 0 0 0 0 0 0 0 0 0 0 0 0 0 0 0 0 -1 0 0
0 0 0 0 0 0 0 0 0 0 0 0 0 0 0 0 0 0 0 0 0 0 0 0 0 0 0 0 0 0 0 0 0 0 0 0 0 0 0 0 0 0 0 0 0 0 0 0 -1
0 0 0 0 0 0 0 0 0 0 0 0 0 0 0 0 0 0 0 0 0 0 0 0 0 0 0 0 0 0 0 0 0 0 0 0 0 0 0 0 0 0 0 0 0 0 0 0 0
0 0 0 0 0 0 0 0 0 0 0 0 0 0 0 0 0 0 0 0 0 0 0 0 0 0 0 0 0 0 0 0 0 0 0 0 0 0 0 0 0 0 0 0 0 0 0 0 -1
0 0 0 0 0 0 0 0 0 0 0 0 0 0 0 0 0 0 0 0 0 0 0 0 0 0 0 0 0 0 0 0 0 0 0 0 0 0 0 0 0 0 0 0 0 0 0 0 0
0 0 0 0 0 0 0 0 0 0 0 0 0 0 0 0 0 0 0 0 0 0 0 0 0 0 0 0 0 0 0 0 0 0 0 0 0 0 0 0 0 0 0 0 0 0 0 0 0
0 0 0 0 0 0 0 0 0 0 0 0 0 0 0 0 0 0 0 0 0 0 0 0 0 0 0 0 0 0 0 0 0 0 0 0 0 0 0 0 0 0 0 0 0 0 0 0 0
0 0 0 0 0 0 0 0 0 0 0 0 0 0 0 0 0 0 0 0 0 0 0 0 0 0 0 0 0 0 0 0 0 0 0 0 0 0 0 0 0 0 0 0 0 0 0 0 0
0 0 0 0 0 0 0 0 0 0 0 0 0 0 0 0 0 0 0 0 0 0 0 0 0 0 0 0 0 0 0 0 0 0 0 0 0 0 0 0 0 0 0 -1 0 0 0 0 0
Wind_Speed
13 11 11 11 10 10 9 9 11 12 12 12 13 13 12 15 14 14 15 15 16 16 17 19 20 21 23 24 26 27 29 30 31 33 35 36 37 38 39 41 42 43 44 45 46 47 47 48 49
10 11 10 12 9 7 9 9 9 10 11 11 12 13 12 13 14 14 14 14 15 16 17 18 20 21 23 24 25 27 29 30 32 34 35 37 38 39 40 41 43 43 44 46 47 48 48 49 50
10 10 9 12 11 10 13 8 9 9 9 10 10 12 12 12 12 13 13 14 15 15 16 17 19 20 22 23 25 27 29 30 32 34 36 37 38 39 41 42 44 45 46 47 48 49 50 51 52
9 10 11 8 11 15 14 7 7 9 8 8 10 11 12 13 11 11 12 13 13 14 16 17 18 20 21 23 25 26 28 30 32 34 35 37 38 39 41 42 43 45 46 47 49 50 51 52 54
8 10 6 10 11 14 13 7 7 8 7 7 7 11 11 9 11 11 11 12 12 13 15 16 18 19 21 22 24 26 28 30 32 34 35 36 37 39 41 42 44 45 46 48 50 51 52 52 53
7 10 7 6 10 12 11 7 7 8 7 7 6 10 12 9 8 9 9 10 12 12 13 14 16 18 20 21 23 25 27 29 31 33 35 35 36 38 40 42 44 46 48 50 50 52 53 54 54
7 5 6 10 12 11 7 6 7 7 6 6 12 8 13 7 8 8 8 9 11 12 12 13 14 16 17 20 22 25 27 29 31 33 35 36 36 38 40 42 44 47 49 50 52 53 54 55 54
6 7 9 8 11 13 8 7 5 7 5 11 7 8 10 6 8 7 7 8 9 10 11 13 13 14 16 18 21 23 26 28 31 33 35 36 36 38 40 42 45 47 48 50 50 51 52 54 56
8 5 5 8 9 12 8 5 5 10 6 3 4 10 13 8 8 7 6 6 7 8 10 11 12 14 15 17 19 21 24 27 30 32 35 35 36 38 39 41 44 46 47 49 49 50 53 53 51
3 1 7 13 11 11 5 4 4 7 2 2 1 5 8 7 7 6 5 4 4 6 7 9 11 13 15 17 19 22 24 26 28 31 34 34 36 37 39 40 42 44 46 48 49 51 51 51 51
9 3 13 11 12 13 6 3 3 2 1 7 3 1 3 4 5 5 4 3 3 4 6 8 10 12 14 17 19 21 23 25 27 31 34 35 36 37 38 40 42 44 46 46 48 50 50 52 50
8 12 14 14 12 11 6 6 2 6 2 11 2 1 4 5 5 5 4 3 2 3 5 7 9 11 13 16 19 21 22 24 26 29 33 35 36 38 40 41 43 44 45 47 49 49 50 50 49
9 12 13 14 13 11 13 2 1 5 8 12 7 2 4 5 5 5 4 2 1 1 4 5 7 10 13 15 17 19 21 23 25 28 31 34 36 38 39 40 42 43 45 46 48 49 50 50 48
15 13 14 14 13 12 10 7 15 13 3 4 6 2 3 5 6 5 6 4 2 1 3 5 6 9 11 14 17 19 21 23 24 27 30 33 35 37 38 40 42 43 44 45 47 49 49 48 46
14 16 14 11 10 13 8 4 8 5 8 4 4 4 4 5 6 8 6 5 3 1 2 3 4 7 9 12 15 17 20 21 23 25 28 32 34 36 38 39 41 43 43 45 47 47 47 46 44
16 15 12 11 7 11 6 5 17 2 3 5 6 6 6 8 9 8 7 7 5 2 2 2 4 6 9 12 14 16 18 20 22 25 28 32 34 36 37 38 40 42 42 45 47 48 48 46 45
13 25 6 12 6 12 2 10 17 14 5 5 8 9 10 8 9 9 9 7 5 3 2 2 4 6 9 11 13 16 17 19 22 24 27 31 33 35 36 37 39 41 42 45 46 45 46 47 44
20 16 13 4 12 6 3 11 8 11 8 7 12 13 12 12 12 11 9 7 5 4 3 2 4 5 8 11 13 14 16 18 21 24 27 30 32 34 35 37 38 41 42 44 45 44 44 43 43
22 24 26 21 20 18 9 15 11 9 10 11 15 15 13 14 9 9 9 7 6 5 4 3 3 5 7 9 12 14 15 17 20 23 26 29 32 33 35 36 38 41 43 44 43 43 46 44 43
22 19 17 20 19 19 34 27 16 13 13 17 12 15 15 9 8 9 9 9 8 8 6 4 3 4 6 9 11 14 16 17 19 22 25 28 31 32 34 36 38 41 42 43 42 44 45 41 42
18 15 23 24 26 20 35 30 20 21 13 6 9 9 9 10 10 10 10 10 9 9 8 6 4 3 5 9 11 13 15 16 17 21 25 27 29 31 33 36 38 40 41 42 41 43 43 42 39
20 20 21 23 27 28 25 38 28 28 22 17 13 4 5 7 8 9 10 11 10 9 7 6 4 3 5 7 10 12 14 16 19 21 24 25 27 30 33 35 37 39 39 41 40 39 39 38 38
25 20 20 21 24 30 20 25 26 25 25 20 17 15 10 6 4 6 8 9 9 8 7 6 4 3 4 6 8 11 13 15 17 20 23 25 26 28 32 34 36 38 39 39 37 37 37 35 34
13 19 22 23 24 28 23 22 25 21 21 17 21 20 17 10 4 2 3 4 6 6 6 5 5 3 3 4 7 9 11 13 16 20 23 24 25 27 31 33 35 37 38 38 36 34 34 33 32
19 19 25 25 20 22 21 21 17 23 17 19 20 19 17 12 9 5 1 2 4 6 6 5 5 4 2 4 6 8 10 13 16 19 22 24 25 27 30 32 35 36 36 36 35 33 33 31 30
17 21 23 27 22 25 21 22 22 22 21 20 18 18 15 13 11 6 2 0 2 4 5 5 5 3 3 3 5 7 9 12 15 18 20 22 24 25 28 31 33 35 35 35 34 33 32 31 29
21 23 23 29 29 30 25 29 31 21 21 19 19 14 15 12 10 7 4 2 1 3 4 4 4 3 3 2 4 6 8 10 13 16 19 21 22 24 27 29 32 34 34 34 33 33 32 31 29
24 18 25 24 29 24 23 27 22 18 16 19 18 13 11 11 11 9 6 4 3 0 2 2 3 3 3 2 3 5 7 9 12 15 18 20 21 23 26 29 31 33 33 33 33 33 31 30 29
25 27 24 25 25 28 30 28 22 21 18 16 18 16 13 11 11 10 9 8 6 4 1 2 2 3 2 2 3 4 6 8 11 14 16 19 20 23 25 28 30 32 33 32 32 33 31 30 29
27 28 25 30 30 29 28 29 22 21 17 17 20 18 16 16 12 10 10 8 7 6 3 3 3 4 3 3 3 4 5 7 10 12 15 18 20 21 24 26 29 31 31 31 30 33 31 30 29
Wind_Direction
282 68 52 55 42 35 46 59 49 85 77 56 50 77 49 357 30 47 68 61 68 52 52 43 13 15 17 13 10 11 15 15 15 11 9 7 4 2 0 358 356 353 351 349 345 344 341 339 336
6 44 57 9 36 50 38 53 90 91 31 63 58 46 59 22 23 48 68 61 57 47 49 30 27 25 20 17 16 14 13 13 12 11 8 5 2 0 359 357 355 353 352 348 346 343 341 339 337
9 54 61 7 7 13 360 67 80 55 57 68 46 24 32 34 40 67 46 59 61 53 45 32 29 27 22 21 18 16 15 13 10 7 5 3 2 1 358 356 354 352 350 347 346 344 341 338 335
19 37 24 33 2 341 343 42 60 82 49 61 24 41 26 8 52 44 62 55 54 44 34 30 25 22 20 19 19 18 16 13 10 8 7 4 3 1 360 358 357 356 353 352 348 345 342 340 337
15 25 57 10 3 351 350 33 80 99 59 73 63 6 17 41 34 57 58 52 46 41 34 28 20 18 16 19 18 16 13 11 8 6 6 5 4 3 -0 359 357 355 352 350 347 344 341 341 339
73 18 48 35 10 3 3 47 84 96 56 47 42 11 3 48 70 59 51 44 35 31 29 28 22 16 16 16 14 12 12 11 8 6 5 5 5 2 0 359 357 354 351 349 347 345 343 341 339
127 47 27 7 3 6 37 72 113 105 77 82 356 18 0 74 87 71 54 38 27 26 26 23 22 21 23 16 13 13 11 8 5 4 3 3 3 2 0 358 356 353 352 350 348 345 344 343 341
24 18 11 19 8 358 44 86 71 116 85 352 41 22 7 104 97 77 56 41 29 24 23 18 20 21 17 15 14 12 8 6 5 3 1 2 2 0 359 358 356 354 353 351 350 347 347 344 340
343 22 21 7 14 1 45 84 24 339 15 71 57 2 359 90 98 86 70 50 33 30 22 19 16 16 15 13 12 11 7 6 4 3 1 1 0 359 359 358 356 355 354 353 351 350 347 345 343
32 66 356 347 2 4 49 112 31 347 145 104 55 13 14 93 111 116 109 88 59 40 31 23 17 13 11 8 7 4 4 4 4 3 1 2 0 360 360 359 357 356 354 353 352 350 348 347 344
331 354 338 354 352 353 26 115 47 2 304 194 190 151 75 113 132 139 137 110 93 48 26 28 21 14 9 6 3 2 3 3 4 3 1 0 0 360 -0 358 357 356 355 354 353 352 351 348 346
328 324 328 336 349 355 9 16 20 192 316 349 195 157 148 160 164 165 161 138 80 38 26 27 20 15 9 4 3 2 2 3 3 2 1 0 1 359 358 357 356 356 356 354 353 352 350 349 348
318 326 330 336 340 344 343 12 246 309 205 338 349 20 179 182 181 176 172 162 120 40 19 22 20 14 7 4 4 3 3 3 4 4 3 2 1 359 359 358 357 357 356 356 354 352 351 350 350
322 323 329 333 337 341 340 341 329 333 228 292 320 264 210 199 193 188 187 195 189 353 360 15 13 9 7 5 3 3 3 3 4 4 3 2 1 0 359 358 358 358 357 357 355 354 353 352 351
321 320 330 337 345 344 2 312 233 233 332 240 274 265 245 224 209 205 203 201 201 272 344 359 12 11 7 5 4 4 3 5 5 5 4 3 3 1 360 360 360 359 358 358 357 356 355 354 353
316 322 330 346 359 352 12 234 344 7 330 257 244 242 243 229 216 212 207 201 203 221 230 345 5 6 3 2 3 3 4 5 5 5 5 3 3 2 1 1 1 0 0 359 359 358 357 356 356
319 291 337 337 355 350 357 338 339 344 336 237 228 226 217 226 216 209 201 203 210 225 266 316 345 352 356 360 1 1 3 4 5 5 4 3 3 3 3 3 3 2 2 1 1 1 360 358 359
300 314 325 318 340 341 290 241 258 328 317 259 224 220 220 217 217 204 205 207 217 231 248 288 328 345 351 356 358 359 2 4 5 4 4 4 5 5 5 5 5 4 3 3 4 3 3 2 1
298 297 302 316 323 328 240 242 259 291 267 249 231 226 226 222 218 212 209 209 218 222 226 243 295 331 345 350 354 356 357 1 3 4 5 6 6 6 7 7 7 6 5 5 6 6 4 5 5
296 307 311 317 326 329 300 251 259 293 254 234 238 229 225 241 235 220 213 210 216 215 218 232 272 316 337 348 354 357 359 1 2 5 6 7 7 8 9 9 8 8 8 8 9 9 8 8 11
298 302 306 310 315 324 305 288 334 337 332 296 237 244 254 253 247 224 219 218 220 219 218 227 249 307 334 346 354 357 359 0 3 4 5 7 9 10 11 11 10 10 11 10 11 11 11 11 15
294 303 305 309 310 311 325 298 321 326 332 337 338 325 285 268 254 233 223 221 220 220 218 223 242 289 327 343 349 352 353 357 2 4 6 8 11 12 12 13 13 13 13 13 13 15 14 15 16
292 304 307 311 310 309 322 321 323 333 334 345 353 352 347 329 254 239 226 228 222 218 221 224 235 273 319 337 348 353 355 0 4 5 7 9 12 14 14 14 14 14 15 15 16 17 17 18 19
302 304 306 308 309 304 314 318 324 335 340 349 347 347 352 355 354 297 231 216 216 214 217 222 234 254 300 333 346 350 356 0 3 5 7 9 12 14 15 16 16 16 17 18 19 19 19 20 22
291 295 299 304 306 305 316 313 313 321 328 334 336 339 348 2 6 3 0 190 194 200 208 220 224 245 274 324 344 353 358 2 4 5 7 9 12 13 15 16 16 17 18 19 20 21 21 22 23
274 286 290 301 307 312 316 311 321 326 326 329 336 338 339 340 350 360 3 351 198 201 203 214 219 238 262 310 340 355 1 3 5 7 9 11 13 14 16 17 18 18 20 21 22 24 24 24 25
279 279 293 294 301 305 305 309 311 316 314 320 327 326 340 347 355 6 16 17 130 184 196 212 218 233 249 294 339 352 1 5 6 9 11 13 15 16 17 18 19 19 21 23 23 25 25 26 27
280 287 286 290 296 299 308 309 314 331 334 335 339 339 340 346 351 357 356 350 343 282 186 219 235 241 256 293 334 353 2 5 8 10 11 13 16 17 18 19 20 21 23 24 25 25 26 26 28
273 274 281 289 290 297 302 305 314 318 327 326 336 342 334 329 330 339 339 334 330 329 290 268 248 257 262 288 328 353 3 7 8 9 11 13 17 18 19 20 21 22 24 25 26 26 27 27 28
273 272 269 277 287 290 294 287 310 319 326 331 329 332 333 329 325 326 329 326 319 309 284 282 283 275 265 283 316 340 1 6 6 9 12 13 16 19 20 21 22 23 25 27 27 26 28 29 30